Date,TemperatureHighF,TemperatureAvgF,TemperatureLowF,DewpointHighF,DewpointAvgF,DewpointLowF,HumidityHigh,HumidityAvg,HumidityLow,PressureMaxIn,PressureMinIn,WindSpeedMaxMPH,WindSpeedAvgMPH,GustSpeedMaxMPH,PrecipitationSumIn
2013-1-1,28.9,22.5,18.3,1.0,-3.2,-7.6,41,32,23,30.03,29.91,3,2,10,0.00
2013-1-2,32.5,25.2,14.9,5.7,3.7,0.1,54,39,30,30.03,29.97,4,1,9,0.00
2013-1-3,30.9,27.4,22.3,10.8,8.6,5.9,52,45,35,29.94,29.82,5,3,11,0.00
2013-1-4,33.3,28.5,23.5,8.8,6.0,4.3,48,38,31,29.91,29.74,6,4,15,0.00
2013-1-5,34.3,28.4,14.7,27.1,16.7,7.2,79,62,50,30.12,29.85,4,1,9,0.00
2013-1-6,36.5,31.8,27.1,30.6,22.6,11.8,79,69,52,30.09,29.71,3,1,10,0.04
2013-1-7,37.2,31.6,23.5,17.2,9.8,5.2,61,40,30,30.15,29.88,5,3,13,0.00
2013-1-8,41.0,32.6,24.4,22.3,15.9,-99.9,69,52,36,30.06,29.94,3,1,8,0.00
2013-1-9,45.3,38.5,32.2,23.0,13.7,8.8,62,37,25,30.21,29.76,7,4,24,0.00
2013-1-10,38.8,32.6,22.6,29.8,20.6,12.6,76,62,50,30.44,30.21,3,0,6,0.00
2013-1-11,47.3,41.7,34.5,43.9,38.1,27.5,89,87,75,29.94,29.59,4,1,10,0.04
2013-1-12,57.2,48.8,41.5,48.6,27.4,9.0,91,52,17,29.79,29.62,5,2,13,0.00
2013-1-13,36.5,34.9,32.2,33.3,31.0,26.1,88,86,68,29.82,29.71,3,0,6,0.04
2013-1-14,29.7,22.2,14.4,17.1,4.6,-99.9,75,48,33,30.27,29.97,2,0,9,0.00
2013-1-15,30.2,22.7,12.4,10.6,-0.8,-99.9,67,40,31,30.27,30.09,3,1,8,0.00
2013-1-16,34.9,28.8,13.1,20.8,11.1,-99.9,77,50,31,29.91,29.56,5,3,14,0.00
2013-1-17,24.6,17.9,9.3,0.0,-21.3,-99.9,44,29,30,30.18,29.97,4,1,10,0.00
2013-1-18,30.9,26.1,4.1,12.6,4.1,-99.9,48,44,44,30.27,29.76,4,2,9,0.00
2013-1-19,39.9,35.4,30.9,27.9,21.3,12.4,75,57,44,29.74,29.32,4,2,9,0.20
2013-1-20,21.9,16.8,10.8,6.8,-30.0,-99.9,54,26,27,30.03,29.50,6,3,17,0.00
2013-1-21,17.2,10.5,2.5,-7.6,-75.1,-99.9,35,8,26,29.88,29.76,5,3,15,0.00
2013-1-22,12.0,4.6,-4.2,-99.9,-99.9,-99.9,0,0,100,30.12,29.97,5,3,11,0.08
2013-1-23,18.9,10.8,-1.7,-7.4,-79.4,-99.9,34,7,26,30.09,29.94,4,2,11,0.08
2013-1-24,15.8,7.7,1.4,-13.0,-91.8,-99.9,27,2,24,30.47,30.18,4,1,10,0.00
2013-1-25,27.3,18.4,9.5,6.3,-21.9,-99.9,50,33,35,30.27,29.91,4,1,9,0.00
2013-1-26,33.8,21.4,10.8,12.0,-8.3,-99.9,70,39,25,30.30,29.97,4,1,8,0.00
2013-1-27,31.8,26.9,11.8,20.1,2.8,-99.9,72,41,31,30.33,30.12,5,2,9,0.04
2013-1-28,37.6,33.8,30.4,31.1,26.5,22.5,78,74,71,29.91,29.68,2,0,6,0.04
2013-1-29,45.0,36.9,31.8,41.0,31.5,25.5,86,81,77,29.88,29.41,3,0,8,0.48
2013-1-30,39.9,35.9,34.5,36.3,33.1,31.3,91,89,87,29.23,28.91,3,0,8,0.08
2013-1-31,25.7,20.3,14.9,3.0,-2.9,-7.2,48,36,24,29.65,29.14,6,1,13,0.00
2013-2-1,23.7,17.7,12.4,2.8,-19.6,-99.9,52,30,27,30.03,29.76,2,0,9,0.00
2013-2-2,23.4,15.3,7.9,-5.1,-49.9,-99.9,40,15,23,29.94,29.88,1,0,7,0.00
2013-2-3,23.5,16.2,-0.6,-2.0,-32.7,-99.9,46,24,27,29.85,29.71,1,0,9,0.08
2013-2-4,6.3,6.3,6.3,-99.9,-99.9,-99.9,0,0,100,29.85,29.85,0,0,0,0.00
2013-2-5,23.9,17.4,0.7,8.2,-21.6,-99.9,57,36,36,29.79,29.62,0,0,7,0.00
2013-2-6,33.4,19.4,1.4,6.1,-25.0,-99.9,56,27,23,30.15,29.94,0,0,7,0.04
2013-2-7,34.5,29.8,24.6,21.7,16.5,12.0,66,57,50,30.15,29.94,0,0,5,0.00
2013-2-8,28.6,23.7,18.5,19.6,8.6,-99.9,76,55,35,30.21,29.88,2,0,16,0.00
2013-2-9,9.5,9.4,9.1,-99.9,-99.9,-99.9,0,0,100,30.27,30.27,0,0,0,0.00
2013-2-10,38.5,29.2,10.9,27.1,1.2,-99.9,77,48,42,30.12,29.62,0,0,5,0.20
2013-2-11,39.4,35.9,33.8,31.1,22.7,14.9,81,60,41,29.56,29.32,4,1,14,0.36
2013-2-12,36.7,30.8,26.6,9.1,6.9,3.7,44,36,29,29.82,29.71,3,0,12,0.00
2013-2-13,40.1,33.9,21.2,13.1,10.2,-99.9,47,38,29,29.74,29.59,1,0,9,0.00
2013-2-14,42.3,33.9,27.3,29.3,20.9,13.3,69,59,43,29.62,29.50,0,0,5,0.08
2013-2-15,34.0,25.0,19.4,6.8,-1.7,-99.9,47,32,22,29.97,29.74,1,0,12,0.00
2013-2-16,30.4,17.3,5.5,0.0,-41.0,-99.9,47,20,23,30.00,29.88,2,0,9,0.00
2013-2-17,25.3,14.7,2.1,1.6,-44.4,-99.9,57,17,24,30.06,29.97,1,0,9,0.08
2013-2-18,40.8,31.1,16.9,15.4,8.1,-0.2,49,38,26,30.03,29.53,1,0,8,0.00
2013-2-19,36.0,29.7,19.2,28.6,11.9,-3.8,78,49,30,29.62,29.17,4,2,16,0.00
2013-2-20,15.1,14.3,12.6,-6.7,-20.7,-99.9,37,30,31,30.09,29.79,1,0,9,0.00
2013-2-21,25.0,21.0,9.0,9.1,-3.3,-99.9,54,39,27,30.30,30.18,1,0,8,0.00
2013-2-22,31.5,28.5,24.1,20.8,17.9,13.6,68,64,61,30.15,29.76,0,0,5,0.00
2013-2-23,39.7,33.6,28.0,27.7,15.5,8.8,78,49,30,29.76,29.68,0,0,8,0.00
2013-2-24,46.9,33.5,18.9,24.4,10.7,-99.9,76,42,22,30.00,29.76,2,0,11,0.20
2013-2-25,42.4,34.1,28.0,18.9,14.1,9.7,52,44,34,30.12,30.06,0,0,4,0.04
2013-2-26,40.3,35.5,27.5,22.3,17.8,14.5,64,49,37,30.03,29.68,2,1,10,0.04
2013-2-27,35.4,33.4,32.2,32.7,30.3,27.7,90,88,82,29.53,29.50,2,0,10,0.16
2013-2-28,34.5,31.2,27.9,32.7,24.2,9.9,93,77,46,29.85,29.50,4,1,12,0.08
2013-3-1,32.0,25.7,21.4,7.2,3.0,-99.9,46,38,31,30.03,29.97,2,0,10,0.00
2013-3-2,23.5,20.0,18.3,6.8,2.3,0.0,48,45,43,30.00,29.97,0,0,7,0.00
2013-3-3,35.8,23.0,12.0,19.0,-7.7,-99.9,56,34,22,29.97,29.88,1,0,8,0.00
2013-3-4,38.5,25.2,7.9,17.2,-7.9,-99.9,71,33,21,30.03,29.97,1,0,10,0.24
2013-3-5,35.8,28.1,9.9,18.9,4.2,-99.9,65,44,31,30.03,29.88,2,0,12,0.00
2013-3-6,42.6,35.6,29.1,26.8,18.3,13.3,74,50,32,30.09,29.94,2,0,8,0.00
2013-3-7,43.5,33.2,21.2,20.5,6.8,-99.9,71,35,23,30.30,30.15,2,0,7,0.00
2013-3-8,47.5,35.5,23.0,19.9,14.7,9.9,66,43,30,30.39,30.30,0,0,5,0.00
2013-3-9,47.3,34.9,21.2,36.0,20.5,-99.9,81,59,38,30.27,29.97,57,1,125,0.00
2013-3-10,47.1,40.3,32.7,39.0,29.4,20.8,75,65,55,29.85,29.74,1,0,4,0.00
2013-3-11,42.1,40.2,35.6,38.5,36.3,29.5,87,86,78,29.59,29.32,2,0,8,0.00
2013-3-12,36.3,33.0,30.4,29.3,10.8,5.9,86,41,32,29.74,29.50,2,0,10,0.00
2013-3-13,36.7,29.3,21.2,11.5,-1.7,-99.9,52,28,19,30.00,29.71,3,1,12,0.00
2013-3-14,44.2,32.2,15.6,23.7,3.6,-99.9,66,34,17,30.12,29.91,1,0,9,0.00
2013-3-15,46.8,37.7,27.9,21.7,7.6,-3.3,56,31,17,29.79,29.74,2,0,10,0.00
2013-3-16,33.3,25.8,20.8,13.3,5.2,-99.9,61,43,31,29.88,29.76,2,0,12,0.00
2013-3-17,29.8,21.9,14.5,10.4,-6.5,-99.9,61,32,23,30.24,30.00,2,0,10,0.08
2013-3-18,39.6,31.6,21.6,20.8,14.0,6.3,67,49,29,30.06,29.47,0,0,8,0.04
2013-3-19,38.1,28.3,21.0,23.2,4.8,-99.9,74,39,24,29.68,29.41,4,1,18,0.00
2013-3-20,40.6,25.4,11.7,22.5,-16.4,-99.9,70,26,19,29.74,29.71,2,0,11,0.00
2013-3-21,37.6,31.0,20.8,17.8,3.2,-99.9,67,33,21,29.74,29.65,1,0,13,0.00
2013-3-22,44.1,34.9,23.7,11.3,8.0,4.5,46,33,22,29.88,29.76,2,0,10,0.08
2013-3-23,50.7,36.7,24.4,18.9,11.8,8.1,53,36,26,29.97,29.91,0,0,8,0.00
2013-3-24,38.5,32.8,21.6,29.1,13.5,7.2,79,47,30,29.94,29.71,2,0,12,0.00
2013-3-25,43.0,38.2,32.5,18.5,13.3,7.3,53,36,26,29.79,29.65,4,1,15,0.00
2013-3-26,51.1,43.3,32.5,25.0,9.3,0.9,70,26,18,29.94,29.82,48,1,125,0.00
2013-3-27,51.6,40.5,32.5,16.2,13.2,6.8,46,34,18,30.03,29.94,2,0,12,0.00
2013-3-28,54.9,43.7,29.7,19.2,14.4,7.7,54,32,19,30.12,30.06,2,0,9,0.00
2013-3-29,53.8,41.1,22.5,26.2,11.4,5.5,74,33,18,30.15,30.09,2,0,7,0.00
2013-3-30,55.4,43.6,21.6,31.5,16.3,12.0,73,37,20,30.09,29.82,1,0,6,0.00
2013-3-31,63.5,51.2,35.1,24.8,15.5,10.0,59,26,16,29.62,29.41,5,2,13,0.00
2013-4-1,39.4,31.2,22.6,5.2,-1.7,-7.4,40,24,18,29.94,29.65,4,2,18,0.00
2013-4-2,42.6,34.9,16.9,23.4,-0.7,-8.7,55,22,18,30.06,29.94,4,1,12,0.00
2013-4-3,48.0,36.3,17.4,24.1,2.4,-99.9,50,25,16,30.27,30.15,2,1,11,0.00
2013-4-4,66.4,49.8,25.0,19.8,13.4,2.7,51,26,15,30.09,29.76,4,2,16,0.00
2013-4-5,42.1,35.4,21.2,13.3,4.9,-99.9,58,29,18,30.12,29.91,4,1,12,0.00
2013-4-6,42.8,37.1,21.7,23.7,16.6,9.9,64,44,29,30.15,29.71,1,0,7,0.00
2013-4-7,50.7,45.7,38.8,33.8,16.6,12.0,53,31,26,29.94,29.38,5,2,14,0.00
2013-4-8,46.9,39.4,30.6,34.0,28.0,18.1,89,67,34,29.94,29.65,2,0,9,0.87
2013-4-9,45.5,39.1,35.6,43.3,36.0,32.0,93,89,86,30.00,29.88,1,0,8,0.32
2013-4-10,39.9,36.8,33.8,37.8,32.3,24.8,93,84,64,30.00,29.91,4,1,16,0.04
2013-4-11,38.7,33.6,31.3,27.5,18.2,11.1,83,54,34,30.00,29.74,4,1,11,0.08
2013-4-12,42.6,34.9,31.3,40.5,31.3,27.5,92,87,79,29.74,29.47,4,0,91,0.64
2013-4-13,46.9,38.8,32.4,32.4,17.3,8.6,84,43,28,29.79,29.62,4,1,16,0.20
2013-4-14,53.8,40.5,21.2,30.2,14.7,-99.9,74,38,21,30.03,29.88,1,0,8,0.00
2013-4-15,72.1,56.4,32.7,43.0,29.3,21.0,72,39,21,29.85,29.71,4,1,12,0.20
2013-4-16,63.0,50.0,37.0,45.7,20.9,11.7,90,38,16,30.15,29.82,4,1,13,0.00
2013-4-17,49.1,40.9,27.3,34.0,21.7,16.7,81,49,28,30.33,30.06,4,1,11,0.12
2013-4-18,50.4,42.8,38.1,47.8,39.5,34.5,91,88,86,29.82,29.38,2,0,5,0.68
2013-4-19,49.6,42.7,21.2,46.6,13.3,5.5,89,31,21,29.50,29.23,6,3,18,0.00
2013-4-20,41.5,34.5,27.5,4.5,0.6,-2.4,32,23,18,30.30,29.68,3,1,9,0.00
2013-4-21,54.0,41.8,18.9,19.0,10.5,3.9,60,30,18,30.53,30.39,2,0,8,0.00
2013-4-22,60.1,51.0,32.2,23.7,17.8,12.7,59,28,19,30.30,30.12,3,1,8,0.00
2013-4-23,63.1,50.5,32.7,43.3,31.0,18.1,78,50,19,30.00,29.71,3,0,9,0.36
2013-4-24,45.7,39.2,30.6,36.5,20.9,12.7,91,51,29,29.91,29.74,2,0,8,0.00
2013-4-25,52.2,45.6,29.3,39.7,14.9,5.0,73,31,18,30.15,29.91,5,2,13,0.00
2013-4-26,65.8,56.9,21.2,19.8,15.1,-99.9,68,20,15,30.27,30.15,4,2,10,0.00
2013-4-27,76.8,64.5,44.1,27.0,21.4,14.7,43,21,13,30.15,30.03,4,2,10,0.00
2013-4-28,70.3,54.9,35.8,43.5,25.7,19.2,79,35,17,29.97,29.79,3,1,8,0.00
2013-4-29,70.0,57.3,46.4,49.3,33.3,26.2,75,43,23,29.82,29.76,3,0,6,0.08
2013-4-30,75.7,62.5,45.9,59.5,39.1,29.1,77,46,22,29.94,29.82,4,2,13,0.04
2013-5-1,79.2,67.5,53.4,34.7,28.6,22.3,44,24,15,30.12,30.06,4,2,7,0.00
2013-5-2,70.0,60.3,44.1,30.9,25.8,19.8,57,28,17,30.21,30.06,4,2,10,0.00
2013-5-3,72.1,61.4,45.1,38.5,25.0,19.0,64,27,16,30.09,30.03,4,1,10,0.00
2013-5-4,73.9,61.9,44.2,30.4,23.0,16.2,58,23,13,30.09,30.03,3,1,8,0.00
2013-5-5,66.7,58.3,37.2,46.6,25.5,17.4,84,31,18,30.06,30.00,4,2,8,0.00
2013-5-6,70.3,62.2,39.0,30.0,23.0,15.4,65,24,14,30.03,29.94,4,2,8,0.00
2013-5-7,66.9,59.9,37.6,40.8,22.3,14.7,68,25,15,30.03,29.94,5,2,9,0.00
2013-5-8,70.9,63.9,42.8,33.3,18.2,10.9,48,18,14,29.97,29.88,4,2,10,0.00
2013-5-9,75.6,60.2,43.2,39.7,28.9,19.2,67,33,13,29.88,29.85,5,2,10,0.00
2013-5-10,42.6,38.7,37.9,38.1,35.6,28.4,92,89,57,29.85,29.79,5,3,15,0.72
2013-5-11,69.6,50.4,34.9,55.8,31.9,20.5,93,58,20,29.76,29.53,4,1,12,0.20
2013-5-12,49.8,42.7,34.9,29.3,12.5,3.7,80,32,19,29.91,29.62,6,3,19,0.00
2013-5-13,60.4,50.5,31.6,21.9,13.3,7.0,47,24,16,30.03,29.94,3,1,12,0.00
2013-5-14,65.3,51.0,36.9,43.7,28.8,21.6,73,46,20,29.94,29.68,2,0,7,0.08
2013-5-15,86.2,75.9,44.6,45.5,22.5,13.6,59,14,11,29.68,29.41,5,3,14,0.00
2013-5-16,81.3,61.5,46.6,33.4,23.0,16.0,52,25,12,29.94,29.65,5,2,13,0.00
2013-5-17,63.3,55.5,40.5,43.2,25.8,18.5,75,34,18,30.15,30.03,3,1,7,0.00
2013-5-18,59.9,54.6,48.2,30.4,25.6,21.9,45,33,25,30.15,30.00,3,1,7,0.00
2013-5-19,78.6,66.0,49.6,38.3,29.7,20.8,55,28,15,29.97,29.79,3,1,7,0.00
2013-5-20,70.2,61.3,50.2,56.7,41.8,30.9,84,52,27,29.82,29.65,4,2,10,1.03
2013-5-21,85.6,68.2,50.7,61.3,43.5,31.8,92,47,19,29.71,29.59,4,1,23,0.55
2013-5-22,58.8,52.9,50.4,50.5,45.7,41.0,86,77,66,29.62,29.53,3,1,9,0.87
2013-5-23,52.3,45.2,41.4,48.9,33.8,15.6,92,70,27,30.03,29.62,4,2,13,0.08
2013-5-24,55.6,49.4,38.1,19.2,13.8,9.7,46,24,17,30.27,30.15,4,2,13,0.00
2013-5-25,64.6,55.6,32.9,26.4,15.1,9.5,77,21,15,30.36,30.21,3,1,8,0.00
2013-5-26,68.9,58.6,36.1,42.1,18.1,8.2,77,24,14,30.27,30.18,4,1,9,0.00
2013-5-27,71.2,60.4,35.2,46.2,22.0,13.6,82,28,14,30.18,29.97,3,1,7,0.00
2013-5-28,54.5,51.4,47.7,47.1,42.3,31.5,76,71,50,29.88,29.71,1,0,7,0.24
2013-5-29,87.1,70.4,54.3,73.2,45.3,34.9,87,47,18,29.85,29.65,4,2,10,0.00
2013-5-30,97.0,79.3,52.0,61.9,47.5,31.5,80,41,11,29.91,29.82,4,1,8,0.20
2013-5-31,91.0,79.2,59.2,68.5,45.7,33.8,80,33,15,29.82,29.71,3,1,8,0.00
2013-6-1,93.4,82.4,60.6,48.4,38.3,29.8,64,23,11,29.65,29.59,3,1,7,0.00
2013-6-2,71.6,61.5,49.6,59.9,35.1,19.9,84,43,16,29.88,29.50,4,1,14,0.04
2013-6-3,77.0,61.2,36.3,35.8,23.8,17.2,77,29,13,29.94,29.88,3,1,12,0.00
2013-6-4,70.9,63.1,37.8,43.9,22.7,16.5,75,23,14,30.12,30.06,3,1,7,0.00
2013-6-5,64.6,55.4,49.3,42.1,31.1,23.7,65,42,23,30.15,30.00,3,1,10,0.00
2013-6-6,66.6,58.6,49.6,28.6,26.4,23.4,43,30,20,29.94,29.85,2,0,7,0.00
2013-6-7,69.8,62.0,44.4,50.2,31.2,26.8,84,33,22,29.88,29.82,4,1,12,0.00
2013-6-8,47.5,47.5,47.5,42.6,42.6,42.6,83,83,83,29.82,29.82,0,0,0,0.00
2013-6-9,75.2,65.7,47.7,61.5,36.6,29.7,89,38,20,30.06,29.97,3,1,7,0.00
2013-6-10,57.6,55.9,21.2,48.9,44.0,-99.9,76,66,54,29.85,29.71,48,1,125,0.04
2013-6-11,75.7,65.2,55.9,67.1,45.4,37.6,85,52,29,29.79,29.71,4,1,7,0.00
2013-6-12,72.0,62.7,51.6,61.7,41.7,34.0,86,49,27,29.82,29.71,4,1,7,0.00
2013-6-13,81.3,73.3,53.8,59.7,36.9,32.0,86,29,19,29.82,29.62,4,2,11,0.00
2013-6-14,73.0,63.9,49.6,34.2,23.3,17.4,49,23,13,30.03,29.91,4,2,12,0.00
2013-6-15,81.9,66.9,47.3,44.6,36.9,30.6,76,36,19,29.97,29.79,2,0,6,0.00
2013-6-16,86.0,72.7,58.5,64.6,45.4,32.9,83,43,19,29.74,29.65,3,1,9,0.43
2013-6-17,57.2,55.6,52.9,53.2,36.0,34.5,89,48,43,29.88,29.74,1,0,7,0.00
2013-6-18,73.8,65.0,49.8,51.1,29.0,18.1,80,29,16,30.03,29.94,4,2,11,0.00
2013-6-19,78.1,67.9,41.9,36.0,26.7,21.0,79,23,13,30.09,30.03,3,1,7,0.00
2013-6-20,88.3,74.8,46.9,53.8,34.4,-99.9,82,28,13,30.09,30.06,2,0,7,0.00
2013-6-21,83.1,72.8,56.3,66.2,42.9,31.3,83,39,16,30.09,29.91,2,0,6,0.00
2013-6-22,82.2,71.2,59.7,53.8,44.3,36.7,59,39,23,29.97,29.85,3,1,8,0.00
2013-6-23,100.8,84.2,57.7,58.8,43.0,-99.9,81,31,11,29.94,29.82,3,0,10,0.00
2013-6-24,100.8,88.4,70.2,60.1,33.9,-99.9,57,24,11,29.88,29.76,3,1,8,0.08
2013-6-25,88.5,77.2,65.1,61.3,48.9,38.3,65,39,19,29.79,29.71,2,0,7,0.00
2013-6-26,90.9,80.7,63.3,68.0,45.3,38.3,87,33,17,29.74,29.68,2,0,7,0.00
2013-6-27,63.5,63.5,63.5,56.5,56.5,56.5,78,78,78,29.65,29.65,0,0,0,0.00
2013-6-28,74.7,66.6,60.4,57.6,53.0,45.9,81,63,37,29.53,29.50,2,0,7,0.00
2013-6-29,78.1,69.6,59.2,58.6,42.6,34.9,82,41,21,29.68,29.50,4,1,10,0.00
2013-6-30,78.1,71.1,58.8,38.7,28.5,21.2,39,21,13,29.91,29.71,4,1,10,0.00
2013-7-1,75.0,67.7,51.4,43.2,29.6,21.4,62,25,16,30.09,29.97,3,1,11,0.00
2013-7-2,75.4,68.1,58.1,37.9,33.5,29.5,47,28,21,30.06,30.00,4,1,10,0.00
2013-7-3,81.7,73.4,51.6,57.7,41.4,34.2,79,34,19,30.06,29.97,3,1,7,0.00
2013-7-4,93.2,79.3,61.0,70.5,43.6,29.5,87,36,11,30.00,29.94,2,0,8,0.00
2013-7-5,92.8,81.4,63.9,62.1,45.7,38.3,78,33,17,30.00,29.91,2,0,7,0.00
2013-7-6,64.2,64.2,64.2,54.7,54.7,54.7,71,71,71,29.97,29.97,0,0,0,0.00
2013-7-7,93.6,81.9,66.2,64.8,49.4,39.0,82,38,16,29.88,29.82,2,0,6,0.00
2013-7-8,74.7,70.0,67.3,66.7,63.1,54.7,88,79,55,29.91,29.85,2,0,15,2.76
2013-7-9,86.0,74.1,67.8,74.7,59.6,49.1,88,63,30,29.88,29.74,2,0,5,0.00
2013-7-10,90.5,79.8,64.2,68.4,40.2,26.2,85,29,12,29.82,29.62,4,2,12,0.00
2013-7-11,82.2,69.6,54.9,49.1,37.8,31.3,70,35,17,30.00,29.88,4,2,11,0.00
2013-7-12,84.4,72.1,49.1,64.6,39.0,28.6,88,36,14,30.12,30.06,4,1,7,0.00
2013-7-13,92.3,78.9,53.6,70.2,44.0,37.2,89,34,17,30.15,30.09,3,0,6,0.00
2013-7-14,93.7,80.2,58.6,66.4,48.1,39.7,86,38,17,30.21,30.15,2,0,6,0.00
2013-7-15,95.9,82.7,65.5,75.2,54.1,42.8,84,42,17,30.21,30.15,2,0,6,0.00
2013-7-16,87.8,81.7,69.6,59.7,55.5,52.9,71,41,31,30.18,30.09,0,0,0,0.00
2013-7-17,106.7,94.9,73.9,62.2,18.4,-99.9,67,17,11,30.12,30.00,2,0,9,0.00
2013-7-18,98.6,81.1,69.3,75.4,59.9,42.8,84,54,16,30.00,29.76,5,0,15,0.91
2013-7-19,100.0,87.4,70.0,65.5,49.2,37.6,69,32,13,29.65,29.53,4,2,14,0.08
2013-7-20,91.2,74.0,60.8,74.1,45.7,29.8,89,45,12,29.85,29.68,4,1,10,0.00
2013-7-21,84.0,71.6,50.0,58.6,40.6,33.4,83,38,18,29.97,29.88,3,1,9,0.00
2013-7-22,93.2,79.9,66.4,61.2,48.7,38.5,74,37,17,29.82,29.65,3,0,7,0.00
2013-7-23,86.5,72.6,60.3,60.1,39.8,22.1,73,37,11,29.76,29.53,4,1,11,0.00
2013-7-24,80.6,67.8,48.9,39.9,27.9,19.2,59,26,12,29.97,29.85,4,1,9,0.00
2013-7-25,86.7,72.6,48.6,64.2,38.1,24.1,86,37,11,30.03,29.97,3,1,8,0.00
2013-7-26,86.2,72.6,63.3,55.2,44.3,35.2,71,41,18,29.94,29.82,2,0,10,0.28
2013-7-27,85.1,71.3,60.1,68.5,52.1,42.1,88,56,24,29.74,29.65,2,0,38,1.10
2013-7-28,76.8,62.9,53.1,65.5,46.7,28.2,90,61,18,29.79,29.68,2,0,25,0.63
2013-7-29,77.9,67.6,54.5,65.1,42.9,32.5,88,45,20,30.06,29.82,1,0,7,0.00
2013-7-30,81.1,69.9,53.4,68.2,42.8,35.2,89,41,21,30.15,30.06,2,0,6,0.00
2013-7-31,80.2,69.4,58.3,64.2,50.8,41.2,83,55,25,30.00,29.82,0,0,6,0.00
2013-8-1,63.1,60.1,57.4,57.9,52.3,47.3,83,76,69,29.79,29.76,0,0,4,0.00
2013-8-2,81.5,69.9,54.3,55.8,46.1,34.2,81,47,19,29.79,29.68,2,0,8,0.12
2013-8-3,85.6,71.1,53.4,70.7,38.7,25.9,89,38,13,29.94,29.85,3,1,9,0.00
2013-8-4,80.6,67.2,51.1,57.2,34.2,23.7,81,36,14,30.09,30.00,4,1,10,0.00
2013-8-5,82.4,71.9,50.0,63.1,40.3,30.4,86,37,16,30.00,29.88,2,0,8,0.00
2013-8-6,81.5,74.2,61.3,66.4,49.6,43.3,79,44,29,29.82,29.76,2,0,7,0.00
2013-8-7,90.7,76.4,64.4,69.1,48.2,34.5,84,44,15,29.82,29.65,3,1,8,0.08
2013-8-8,81.3,73.6,56.3,58.5,37.7,31.8,81,29,17,29.94,29.88,4,1,9,0.00
2013-8-9,90.3,78.4,51.1,45.5,13.9,-99.9,81,18,11,29.91,29.79,3,1,7,0.00
2013-8-10,83.5,72.6,49.5,53.2,27.8,18.9,69,22,11,30.06,30.00,3,1,7,0.00
2013-8-11,86.9,69.4,49.5,59.2,40.4,27.3,84,41,13,30.03,29.91,2,0,6,0.00
2013-8-12,88.2,74.7,56.8,57.0,43.7,35.2,72,38,18,29.91,29.74,2,0,8,0.04
2013-8-13,73.8,63.0,54.3,45.0,27.1,18.5,70,27,14,29.97,29.79,3,2,10,0.00
2013-8-14,80.1,65.1,48.6,56.7,36.4,19.4,84,43,12,30.06,29.97,3,0,7,0.00
2013-8-15,85.1,74.2,46.8,51.8,34.7,26.2,83,26,13,30.03,29.94,2,0,7,0.00
2013-8-16,84.0,73.0,52.3,61.7,39.3,32.4,81,33,16,30.12,30.03,2,0,7,0.00
2013-8-17,87.6,73.4,51.1,69.8,44.8,37.2,89,42,18,30.18,30.12,2,0,7,0.00
2013-8-18,92.5,80.6,54.3,68.0,35.7,-99.9,83,27,11,30.15,30.00,1,0,7,0.00
2013-8-19,91.6,79.7,55.9,67.3,34.4,-99.9,82,29,12,30.00,29.88,3,0,7,0.00
2013-8-20,96.4,83.9,61.3,54.7,43.0,31.3,64,26,11,30.00,29.94,3,0,7,0.00
2013-8-21,98.1,84.9,63.0,62.4,42.2,-99.9,70,28,11,30.00,29.82,3,1,8,0.00
2013-8-22,92.8,78.8,64.6,50.7,43.6,30.4,46,30,11,29.97,29.82,2,0,7,0.00
2013-8-23,82.4,71.3,54.5,60.4,40.1,33.3,78,36,19,30.12,30.03,3,1,8,0.00
2013-8-24,88.3,75.2,50.7,70.9,45.6,37.4,89,41,18,30.24,30.15,2,0,8,0.00
2013-8-25,94.3,80.0,60.3,55.6,44.5,37.2,70,32,14,30.18,29.91,2,0,7,0.00
2013-8-26,95.4,78.6,70.0,72.1,54.5,40.5,73,46,17,29.97,29.82,2,0,7,0.04
2013-8-27,86.2,74.0,65.7,71.1,57.8,48.2,86,59,29,29.85,29.76,0,0,4,0.32
2013-8-28,81.1,74.7,67.6,71.4,56.3,48.7,87,56,33,29.94,29.76,4,1,9,0.00
2013-8-29,90.7,81.3,63.1,79.5,53.0,44.2,87,42,21,30.00,29.91,2,0,6,0.08
2013-8-30,85.1,73.9,68.4,73.0,60.8,49.5,77,65,32,29.82,29.62,1,0,13,0.40
2013-8-31,82.6,73.0,64.0,58.8,49.7,42.8,74,47,25,29.79,29.74,4,1,10,0.00
2013-9-1,82.8,71.1,59.0,65.5,52.3,44.8,83,55,29,29.76,29.62,2,0,6,0.00
2013-9-2,72.9,64.5,57.0,50.4,37.4,30.6,72,39,22,29.79,29.68,3,1,10,0.00
2013-9-3,88.5,72.6,53.1,47.1,17.1,-99.9,65,22,11,29.88,29.79,3,1,9,0.00
2013-9-4,80.2,65.0,53.4,52.2,41.4,36.0,75,45,21,30.00,29.85,4,1,10,0.00
2013-9-5,71.1,59.9,44.6,50.4,27.5,19.2,79,34,16,30.21,30.09,3,1,10,0.00
2013-9-6,44.6,44.6,44.6,37.8,37.8,37.8,77,77,77,30.15,30.15,0,0,0,0.00
2013-9-7,80.6,68.6,60.1,72.5,59.6,48.6,84,73,54,29.85,29.76,1,0,6,0.47
2013-9-8,75.7,65.9,54.7,49.5,32.7,23.7,63,31,15,30.09,29.94,3,1,10,0.00
2013-9-9,81.0,71.9,49.6,64.0,45.7,35.8,86,42,21,29.97,29.71,1,0,6,0.00
2013-9-10,102.6,87.5,68.9,75.4,40.9,-99.9,84,35,11,29.82,29.71,2,0,8,0.00
2013-9-11,87.8,76.2,66.2,66.7,52.4,40.5,77,47,20,29.91,29.82,0,0,0,0.04
2013-9-12,83.5,68.9,57.0,62.1,35.6,18.9,82,35,12,29.88,29.74,3,1,9,0.00
2013-9-13,64.0,53.8,44.8,45.0,29.0,21.4,83,43,20,30.06,29.94,4,1,13,0.04
2013-9-14,76.8,60.9,37.4,50.0,27.9,18.9,84,36,13,30.09,29.94,3,0,7,0.00
2013-9-15,64.4,58.1,54.0,47.8,40.8,35.2,76,54,38,30.00,29.91,0,0,6,0.04
2013-9-16,62.4,52.3,44.4,43.7,28.0,19.4,84,43,21,30.33,30.15,3,1,10,0.00
2013-9-17,73.0,55.8,33.6,53.4,34.0,27.9,88,50,21,30.36,30.12,1,0,7,0.00
2013-9-18,79.0,63.6,44.2,59.2,43.7,34.2,87,54,21,30.09,29.91,1,0,8,0.00
2013-9-19,85.6,71.2,60.6,60.3,48.0,42.8,67,46,23,29.91,29.76,2,0,8,0.00
2013-9-20,77.7,71.3,66.2,72.7,60.6,53.6,88,70,53,29.68,29.59,1,0,6,0.00
2013-9-21,70.3,59.8,49.8,54.3,34.4,26.2,78,42,22,29.76,29.59,3,1,10,0.00
2013-9-22,57.2,49.9,39.7,43.2,28.0,20.8,81,46,26,30.00,29.85,2,0,8,0.00
2013-9-23,70.2,56.5,44.1,38.5,29.9,21.7,62,39,17,30.12,30.06,3,0,7,0.00
2013-9-24,72.0,56.8,38.5,55.6,34.2,26.8,88,48,21,30.09,29.94,4,0,7,0.00
2013-9-25,72.3,57.7,39.0,57.9,37.3,29.5,89,52,22,29.97,29.91,3,1,8,0.00
2013-9-26,73.6,58.4,40.3,59.7,42.0,36.1,90,59,29,30.06,29.97,4,1,8,0.00
2013-9-27,79.0,64.8,43.5,61.2,45.9,35.1,90,55,23,30.15,30.09,3,0,6,0.08
2013-9-28,75.6,65.6,56.8,62.2,51.3,41.9,87,63,31,30.12,29.91,2,0,7,0.00
2013-9-29,71.8,60.2,50.2,63.3,48.2,39.0,85,66,39,29.94,29.79,1,0,6,0.52
2013-9-30,73.6,59.5,42.6,63.5,42.5,30.6,89,59,21,29.94,29.82,2,0,6,0.00
2013-10-1,81.0,70.2,52.0,63.1,46.3,36.1,88,47,21,29.82,29.71,4,1,11,0.00
2013-10-2,81.1,65.1,51.8,55.6,34.0,16.7,82,41,12,30.00,29.82,2,0,8,0.00
2013-10-3,76.5,64.9,52.7,55.6,44.0,35.6,79,50,23,29.97,29.82,1,0,6,0.00
2013-10-4,62.2,60.1,58.6,57.7,55.0,53.4,85,83,82,30.00,29.82,1,0,9,0.04
2013-10-5,62.8,60.9,58.8,57.9,55.4,52.7,86,82,80,30.00,29.85,2,0,7,0.44
2013-10-6,69.6,65.8,60.8,65.8,61.7,55.9,89,86,83,29.71,29.53,1,0,7,0.44
2013-10-7,51.4,49.6,47.1,45.3,33.8,30.7,86,54,47,29.91,29.53,1,0,6,0.00
2013-10-8,67.6,55.8,38.3,58.3,43.1,32.9,86,65,38,30.18,30.06,2,0,8,0.00
2013-10-9,71.2,59.3,45.9,58.5,40.9,28.6,83,54,23,30.24,30.15,2,0,7,0.00
2013-10-10,69.1,57.3,42.1,59.2,45.2,36.9,86,66,43,30.15,30.06,0,0,0,0.00
2013-10-11,68.4,56.6,42.4,59.7,45.3,37.4,89,68,43,30.09,30.00,0,0,4,0.08
2013-10-12,73.0,60.8,42.4,63.5,49.4,37.6,88,68,47,30.03,29.91,0,0,0,0.00
2013-10-13,67.8,57.0,48.2,46.0,32.4,25.7,69,42,23,30.24,30.03,2,0,8,0.00
2013-10-14,48.6,45.6,41.5,30.7,27.1,23.9,65,48,38,30.33,30.24,0,0,4,0.00
2013-10-15,64.2,56.5,36.3,54.3,42.2,28.0,84,60,41,30.12,29.71,1,0,7,0.36
2013-10-16,56.8,52.7,51.4,52.0,38.5,37.2,84,59,52,29.74,29.65,2,1,7,0.00
2013-10-17,47.5,45.9,45.0,36.0,34.1,32.4,68,63,57,29.76,29.65,0,0,0,0.04
2013-10-18,61.5,52.7,38.3,51.6,34.3,25.3,85,52,28,29.74,29.68,3,1,10,0.00
2013-10-19,51.1,45.3,39.2,44.6,35.9,26.6,82,70,55,29.68,29.59,3,0,8,0.08
2013-10-20,53.8,45.8,34.5,45.0,31.0,23.9,84,59,37,29.76,29.68,3,0,8,0.00
2013-10-21,54.7,48.8,42.1,48.6,29.2,15.8,85,51,26,29.68,29.62,4,2,11,0.00
2013-10-22,45.5,35.8,30.9,21.4,16.4,12.0,49,45,38,29.68,29.62,3,1,10,0.00
2013-10-23,47.8,37.3,28.0,27.5,16.7,9.5,80,47,21,29.76,29.71,2,0,8,0.00
2013-10-24,37.6,35.9,31.5,26.2,25.7,24.4,75,66,59,29.97,29.76,0,0,5,0.00
2013-10-25,45.5,41.7,32.2,26.8,14.5,12.0,80,33,28,30.06,29.91,1,0,6,0.00
2013-10-26,48.0,43.7,36.7,38.1,28.1,18.7,77,56,33,29.76,29.56,2,0,10,0.04
2013-10-27,51.4,43.9,33.8,37.8,23.8,14.2,80,49,23,29.91,29.79,2,0,9,0.00
2013-10-28,46.4,38.5,28.8,23.9,14.1,7.9,54,37,27,30.36,30.03,2,0,12,0.00
2013-10-29,44.6,40.3,23.5,21.0,16.4,13.1,66,38,29,30.39,30.18,1,0,6,0.00
2013-10-30,55.9,46.3,35.2,42.6,31.8,25.3,73,58,41,30.12,29.91,0,0,5,0.08
2013-10-31,59.9,56.4,48.7,54.0,49.8,38.7,83,79,68,29.62,29.06,2,0,7,0.24
2013-11-1,54.1,49.8,46.2,49.6,38.1,32.7,88,65,51,29.53,28.88,6,2,15,0.00
2013-11-2,41.5,40.8,40.3,35.4,34.8,34.2,82,79,76,29.68,29.59,4,1,9,0.04
2013-11-3,46.2,40.5,34.5,20.3,15.3,10.2,48,36,28,30.36,30.27,1,0,6,0.00
2013-11-4,50.7,45.0,37.0,22.3,18.8,16.0,47,35,27,30.39,30.18,3,2,10,0.00
2013-11-5,58.6,50.3,44.4,33.8,29.3,25.2,55,45,35,30.21,30.09,0,0,6,0.00
2013-11-6,54.7,49.3,38.8,48.0,42.7,32.4,83,78,53,29.85,29.53,4,2,13,0.56
2013-11-7,39.0,36.7,34.0,30.7,21.5,15.4,80,55,40,29.97,29.91,4,1,11,0.12
2013-11-8,44.6,37.0,28.4,32.9,17.3,8.8,78,47,28,30.12,30.03,4,1,8,0.04
2013-11-9,51.4,46.9,40.1,31.5,26.2,21.2,60,45,33,29.91,29.59,4,2,12,0.00
2013-11-10,46.8,40.6,34.9,24.3,14.0,9.0,53,34,22,30.12,29.74,4,2,13,0.00
2013-11-11,39.4,31.5,24.6,29.7,11.1,-2.0,68,44,25,30.15,29.85,3,1,11,0.00
2013-11-12,34.5,27.6,20.1,9.9,-0.0,-6.7,46,31,22,30.39,30.30,4,1,12,0.00
2013-11-13,43.5,34.4,17.8,15.4,4.4,-1.7,61,31,18,30.30,29.85,5,3,13,0.00
2013-11-14,50.0,42.3,28.8,18.0,14.7,11.1,52,33,24,29.85,29.76,4,1,11,0.00
2013-11-15,47.7,41.2,35.6,27.1,20.8,15.8,53,44,36,29.88,29.79,2,0,8,0.04
2013-11-16,52.5,47.5,30.4,39.0,31.9,18.1,72,55,43,29.94,29.65,3,1,8,0.00
2013-11-17,57.6,53.0,45.9,52.2,47.0,41.0,85,80,74,29.53,28.94,6,3,12,0.74
2013-11-18,45.9,39.9,33.6,41.5,26.5,11.7,86,60,32,29.59,29.06,7,4,18,0.12
2013-11-19,37.4,30.4,23.9,9.3,6.2,3.0,53,36,29,30.30,30.09,2,0,8,0.20
2013-11-20,44.2,37.9,27.9,26.8,21.3,16.5,68,52,41,30.33,30.18,3,0,8,0.16
2013-11-21,45.5,42.0,36.5,32.4,26.2,17.8,62,53,46,30.15,30.06,0,0,6,0.00
2013-11-22,39.0,30.5,20.8,30.4,17.4,6.6,76,59,41,30.24,30.03,3,1,11,0.12
2013-11-23,25.9,20.5,11.8,14.7,-10.9,-99.9,62,35,22,30.33,30.09,5,2,15,0.00
2013-11-24,25.0,17.5,7.9,4.3,-28.2,-99.9,57,25,24,30.41,30.24,3,0,9,0.00
2013-11-25,30.4,28.3,22.5,14.4,6.0,-3.8,52,39,25,30.00,29.82,6,2,12,0.04
2013-11-26,35.4,32.2,26.2,24.1,19.4,11.8,65,59,54,29.88,29.79,3,0,9,0.00
2013-11-27,24.8,20.3,15.1,6.8,-1.8,-99.9,56,38,32,30.00,29.85,4,2,15,0.04
2013-11-28,27.5,22.1,13.1,6.8,-4.5,-99.9,52,37,26,30.30,30.12,1,0,7,0.00
2013-11-29,34.9,25.3,10.8,23.4,1.1,-99.9,66,47,45,30.53,30.41,0,0,6,0.08
2013-11-30,38.7,35.4,21.2,17.2,13.9,-99.9,52,42,36,30.30,29.94,4,1,10,0.00
2013-12-1,34.5,32.8,30.2,27.1,24.0,19.0,76,70,55,29.94,29.91,2,0,8,0.04
2013-12-2,36.1,31.6,27.3,20.8,14.7,10.2,62,50,41,29.88,29.79,0,0,4,0.04
2013-12-3,32.9,30.8,18.9,25.2,21.7,8.4,74,69,63,29.85,29.82,0,0,6,0.00
2013-12-4,38.7,36.6,32.2,34.9,32.1,25.2,86,84,75,29.79,29.50,1,0,5,0.79
2013-12-5,47.5,35.6,25.9,43.5,16.0,0.9,87,49,24,29.91,29.41,7,3,125,1.14
2013-12-6,26.4,21.1,13.3,0.7,-9.9,-99.9,43,30,24,30.21,30.06,4,1,10,0.00
2013-12-7,23.9,18.3,9.7,0.1,-27.9,-99.9,47,22,24,30.47,30.30,26,2,125,0.00
2013-12-8,27.1,22.9,6.3,11.8,3.6,-99.9,52,44,35,30.44,30.03,1,0,7,0.00
2013-12-9,28.8,19.7,15.6,16.3,-0.1,-6.5,59,41,36,29.82,29.74,5,3,15,0.00
2013-12-10,21.2,13.1,-0.9,2.3,-41.7,-99.9,46,24,35,29.94,29.71,5,1,12,0.04
2013-12-11,22.6,11.4,2.1,-1.1,-65.5,-99.9,50,11,22,30.24,30.03,4,1,12,0.00
2013-12-12,20.8,12.5,-0.2,-0.8,-58.9,-99.9,50,16,33,30.21,29.97,4,1,12,0.08
2013-12-13,19.6,14.6,9.5,0.7,-42.8,-99.9,45,20,25,30.27,29.97,2,0,9,0.00
2013-12-14,23.9,21.8,18.5,10.4,8.2,4.6,59,55,50,30.21,29.79,0,0,8,0.00
2013-12-15,27.1,20.2,9.5,14.4,-5.1,-99.9,64,45,32,29.76,29.56,5,1,11,0.00
2013-12-16,21.2,7.5,-2.2,-2.7,-83.3,-99.9,45,7,35,30.06,29.94,2,0,7,0.12
2013-12-17,30.4,21.4,16.0,13.3,5.7,0.3,55,50,44,29.79,29.71,0,0,6,0.00
2013-12-18,30.7,25.3,21.4,15.1,7.4,-99.9,63,48,38,29.91,29.74,3,0,10,0.00
2013-12-19,29.7,28.1,16.2,11.1,9.6,-0.9,48,45,42,29.94,29.68,0,0,5,0.00
2013-12-20,31.1,31.1,31.1,21.0,21.0,21.0,66,66,66,29.76,29.76,1,1,4,0.00
2013-12-21,31.1,29.2,27.7,22.5,17.6,14.5,73,61,56,29.85,29.74,5,2,14,0.00
2013-12-22,30.4,26.0,20.5,24.1,16.3,7.0,80,67,54,29.85,29.59,6,3,13,2.99
2013-12-23,24.1,16.4,6.8,7.2,-25.5,-99.9,61,34,33,30.21,29.97,48,0,125,0.16
2013-12-24,14.4,3.1,-10.1,-8.9,-95.5,-99.9,34,2,32,30.39,30.21,2,0,7,0.20
2013-12-25,22.5,5.9,-9.9,8.4,-57.3,-99.9,54,21,49,30.39,29.97,3,1,9,0.00
2013-12-26,31.1,22.4,16.9,15.1,3.8,-99.9,65,47,34,30.12,29.88,3,0,9,0.00
2013-12-27,31.3,24.2,8.6,18.7,-6.1,-99.9,62,42,41,30.15,29.82,4,1,11,0.00
2013-12-28,42.4,34.4,28.2,28.4,20.2,13.8,67,56,47,29.91,29.68,2,0,7,0.00
2013-12-29,35.1,24.1,12.6,27.0,5.3,-99.9,72,52,39,29.82,29.59,4,1,11,0.00
2013-12-30,20.8,10.5,-4.5,0.0,-64.6,-99.9,48,13,28,30.15,30.00,2,0,8,0.00
2013-12-31,21.2,10.1,2.8,-7.8,-79.7,-99.9,35,6,24,30.15,29.88,5,2,17,0.00
2014-1-1,16.0,9.8,-5.1,-5.6,-89.5,-99.9,40,4,36,30.33,30.24,3,1,9,0.00
2014-1-2,11.3,7.1,-0.9,-99.9,-99.9,-99.9,0,0,100,30.18,30.12,5,2,13,0.00